Wolf Point, MT

9:03 PM MDT on July 22, 2017 (GMT -0600)
Clayton

Weather History for KOLF - November, 2013

Change the Weather History Date:

Tuesday, November 19, 2013

  Actual Average Record
Temperature  
Mean Temperature 38 °F -  
Max Temperature 57 °F 38 °F 57 °F (2013)
Min Temperature 18 °F 13 °F -10 °F (2011)
Degree Days  
Heating Degree Days 27    
Cooling Degree Days 0    
Moisture  
Dew Point 22 °F    
Average Humidity 69    
Maximum Humidity 88    
Minimum Humidity 34    
Precipitation  
Precipitation 0.00 in 0.01 in 0.05 in (2011)
Month to date precipitation 0.16 0.28  
Year to date precipitation 13.20 11.77  
Sea Level Pressure  
Sea Level Pressure 29.67 in    
Wind  
Wind Speed 4 mph (NNE)    
Max Wind Speed 16 mph    
Max Gust Speed 24 mph    
Visibility 10 miles    
Events      
T = Trace of Precipitation, MM = Missing Value Source: NWS Daily Summary

Daily Weather History Graph

Daily Weather History Graph

Search for Another Location

Airport or City:

Trip Planner

Search our weather history database for the weather conditions in past years. The results will help you decide how hot, cold, wet, or windy it might be!

Date:

Astronomy

Nov. 19, 2013 Rise Set
Actual Time 7:15 AM MST 4:19 PM MST
Civil Twilight 6:40 AM MST 4:54 PM MST
Nautical Twilight 6:02 AM MST 5:32 PM MST
Astronomical Twilight 5:25 AM MST 6:09 PM MST
Moon 6:11 PM MST (11/19) 8:58 AM MST (11/19)
Length of Visible Light 10h 13m
Length of Day
9h 04m
Waning Gibbous, 96% of the Moon is Illuminated
Nov 19
Waning Gibbous
Nov 25
Last Quarter
Dec 2
New
Dec 9
First Quarter
Dec 17
Full

Hourly Weather History & Observations

Time (MST) Temp. Windchill Dew Point Humidity Pressure Visibility Wind Dir Wind Speed Gust Speed Precip Events Conditions
12:53 AM 27.0 °F - 23.0 °F 85% 29.76 in 10.0 mi Calm Calm - N/A   Unknown
1:53 AM 28.0 °F 22.8 °F 23.0 °F 81% 29.73 in 10.0 mi East 4.6 mph - N/A   Partly Cloudy
2:53 AM 26.1 °F 19.4 °F 21.9 °F 84% 29.71 in 10.0 mi East 5.8 mph - N/A   Clear
3:53 AM 26.1 °F 19.4 °F 21.9 °F 84% 29.68 in 10.0 mi East 5.8 mph - N/A   Partly Cloudy
4:53 AM 26.1 °F 21.9 °F 21.9 °F 84% 29.68 in 10.0 mi NNE 3.5 mph - N/A   Clear
5:53 AM 27.0 °F - 23.0 °F 85% 29.65 in 10.0 mi Calm Calm - N/A   Clear
6:53 AM 25.0 °F 19.3 °F 21.9 °F 88% 29.63 in 10.0 mi East 4.6 mph - N/A   Clear
8:53 AM 30.0 °F - 25.0 °F 82% 29.62 in 10.0 mi Calm Calm - N/A   Overcast
9:53 AM 32.0 °F - 26.1 °F 79% 29.61 in 10.0 mi Calm Calm - N/A   Overcast
10:53 AM 39.0 °F - 28.9 °F 67% 29.59 in 10.0 mi Calm Calm - N/A   Clear
11:53 AM 46.0 °F - 28.9 °F 51% 29.54 in 10.0 mi Calm Calm - N/A   Clear
12:53 PM 51.1 °F - 30.0 °F 44% 29.52 in 10.0 mi Calm Calm - N/A   Clear
1:53 PM 55.9 °F - 28.9 °F 36% 29.51 in 10.0 mi SW 8.1 mph - N/A   Clear
2:54 PM 57.0 °F - 28.9 °F 34% 29.51 in 10.0 mi SSW 4.6 mph - N/A   Unknown
3:53 PM 55.0 °F - 28.9 °F 37% 29.51 in 10.0 mi Calm Calm - N/A   Clear
4:53 PM 41.0 °F 34.7 °F 27.0 °F 57% 29.54 in 10.0 mi North 10.4 mph - N/A   Clear
5:53 PM 30.0 °F 18.7 °F 23.0 °F 75% 29.62 in 10.0 mi North 16.1 mph 24.2 mph N/A   Clear
6:53 PM 25.0 °F 18.1 °F 17.1 °F 72% 29.70 in 10.0 mi NNE 5.8 mph - N/A   Clear
7:53 PM 21.0 °F 8.6 °F 14.0 °F 74% 29.77 in 10.0 mi NNE 12.7 mph - N/A   Clear
8:53 PM 19.9 °F 8.6 °F 12.0 °F 71% 29.82 in 10.0 mi North 10.4 mph 19.6 mph N/A   Clear
9:53 PM 18.0 °F 9.8 °F 10.9 °F 74% 29.86 in 10.0 mi North 5.8 mph - N/A   Clear
10:53 PM 18.0 °F 9.8 °F 9.0 °F 68% 29.90 in 10.0 mi NNW 5.8 mph - N/A   Mostly Cloudy
11:53 PM 18.0 °F 7.7 °F 8.1 °F 65% 29.92 in 10.0 mi NW 8.1 mph - N/A   Overcast